Location: C.E.K. Mees Observatory
(42.7003°N, 77.4088°W)
Time: 09:45:09
(UTC-04:00)

Envisat - Pass Details

Date: 12 October 2017
Orbit: 764 x 766 km, 98.2° (Epoch: 19 April)

Event Time Altitude Azimuth Distance (km) Brightness Sun altitude
Exits shadow 19:53:51 24° 75° (ENE) 1,558 4.0 -15.9°
Maximum altitude 19:54:24 24° 65° (ENE) 1,541 4.1 -16.0°
Drops below altitude 10° 19:58:26 10° 12° (NNE) 2,312 5.4 -16.7°
Sets 20:01:06 0° 359° (N) 3,243 6.3 -17.2°
